Location: Caserta
(41.0670°N, 14.3330°E)
Time: 00:54:12
(UTC+01:00)

STARLINK-1329 - Pass Details

Date: 09 October 2020
Orbit: 548 x 551 km, 53.0° (Epoch: 27 October)

Event Time Altitude Azimuth Distance (km) Brightness Sun altitude
Exits shadow 06:23:17 - 315° (NW) 2,353 6.4 -9.2°
Reaches altitude 10° 06:24:49 10° 325° (NW) 1,828 5.9 -8.9°
Maximum altitude 06:28:17 25° 22° (NNE) 1,142 5.5 -8.3°
Drops below altitude 10° 06:31:44 10° 78° (ENE) 1,825 7.8 -7.6°
Sets 06:34:16 0° 92° (E) 2,717 9.9 -7.2°
